Year,Month,Day,Hour,Minute,Value (Times are PST for temperature in C)
2016,07,03,00,00,16.30
2016,07,03,00,01,16.30
2016,07,03,00,02,16.30
2016,07,03,00,03,16.30
2016,07,03,00,04,16.30
2016,07,03,00,05,16.30
2016,07,03,00,06,16.30
2016,07,03,00,07,16.30
2016,07,03,00,08,16.20
2016,07,03,00,09,16.20
2016,07,03,00,10,16.20
2016,07,03,00,11,16.20
2016,07,03,00,12,16.20
2016,07,03,00,13,16.20
2016,07,03,00,14,16.20
2016,07,03,00,15,16.20
2016,07,03,00,16,16.20
2016,07,03,00,17,16.20
2016,07,03,00,18,16.20
2016,07,03,00,19,16.20
2016,07,03,00,20,16.20
2016,07,03,00,21,16.20
2016,07,03,00,22,16.20
2016,07,03,00,23,16.20
2016,07,03,00,24,16.20
2016,07,03,00,25,16.20
2016,07,03,00,26,16.20
2016,07,03,00,27,16.20
2016,07,03,00,28,16.20
2016,07,03,00,29,16.20
2016,07,03,00,30,16.20
2016,07,03,00,31,16.20
2016,07,03,00,32,16.20
2016,07,03,00,33,16.20
2016,07,03,00,34,16.20
2016,07,03,00,35,16.20
2016,07,03,00,36,16.20
2016,07,03,00,37,16.20
2016,07,03,00,38,16.10
2016,07,03,00,39,16.10
2016,07,03,00,40,16.10
2016,07,03,00,41,16.10
2016,07,03,00,42,16.10
2016,07,03,00,43,16.10
2016,07,03,00,44,16.10
2016,07,03,00,45,16.10
2016,07,03,00,46,16.10
2016,07,03,00,47,16.10
2016,07,03,00,48,16.10
2016,07,03,00,49,16.10
2016,07,03,00,50,16.10
2016,07,03,00,51,16.10
2016,07,03,00,52,16.20
2016,07,03,00,53,16.20
2016,07,03,00,54,16.20
2016,07,03,00,55,16.20
2016,07,03,00,56,16.20
2016,07,03,00,57,16.20
2016,07,03,00,58,16.20
2016,07,03,00,59,16.20
2016,07,03,01,00,16.20
2016,07,03,01,01,16.20
2016,07,03,01,02,16.20
2016,07,03,01,03,16.20
2016,07,03,01,04,16.20
2016,07,03,01,05,16.20
2016,07,03,01,06,16.20
2016,07,03,01,07,16.20
2016,07,03,01,08,16.10
2016,07,03,01,09,16.10
2016,07,03,01,10,16.10
2016,07,03,01,11,16.10
2016,07,03,01,12,16.10
2016,07,03,01,13,16.10
2016,07,03,01,14,16.00
2016,07,03,01,15,16.00
2016,07,03,01,16,16.00
2016,07,03,01,17,16.00
2016,07,03,01,18,15.90
2016,07,03,01,19,15.90
2016,07,03,01,20,15.90
2016,07,03,01,21,15.90
2016,07,03,01,22,15.90
2016,07,03,01,23,15.90
2016,07,03,01,24,15.90
2016,07,03,01,25,15.90
2016,07,03,01,26,15.80
2016,07,03,01,27,15.80
2016,07,03,01,28,15.80
2016,07,03,01,29,15.80
2016,07,03,01,30,15.80
2016,07,03,01,31,15.80
2016,07,03,01,32,15.80
2016,07,03,01,33,15.80
2016,07,03,01,34,15.80
2016,07,03,01,35,15.70
2016,07,03,01,36,15.70
2016,07,03,01,37,15.70
2016,07,03,01,38,15.70
2016,07,03,01,39,15.70
2016,07,03,01,40,15.70
2016,07,03,01,41,15.70
2016,07,03,01,42,15.70
2016,07,03,01,43,15.70
2016,07,03,01,44,15.70
2016,07,03,01,45,15.70
2016,07,03,01,46,15.60
2016,07,03,01,47,15.60
2016,07,03,01,48,15.60
2016,07,03,01,49,15.60
2016,07,03,01,50,15.60
2016,07,03,01,51,15.60
2016,07,03,01,52,15.60
2016,07,03,01,53,15.60
2016,07,03,01,54,15.60
2016,07,03,01,55,15.60
2016,07,03,01,56,15.60
2016,07,03,01,57,15.60
2016,07,03,01,58,15.60
2016,07,03,01,59,15.60
2016,07,03,02,00,15.60
2016,07,03,02,01,15.50
2016,07,03,02,02,15.50
2016,07,03,02,03,15.50
2016,07,03,02,04,15.50
2016,07,03,02,05,15.40
2016,07,03,02,06,15.40
2016,07,03,02,07,15.40
2016,07,03,02,08,15.40
2016,07,03,02,09,15.40
2016,07,03,02,10,15.30
2016,07,03,02,11,15.30
2016,07,03,02,12,15.30
2016,07,03,02,13,15.30
2016,07,03,02,14,15.30
2016,07,03,02,15,15.30
2016,07,03,02,16,15.30
2016,07,03,02,17,15.30
2016,07,03,02,18,15.20
2016,07,03,02,19,15.20
2016,07,03,02,20,15.20
2016,07,03,02,21,15.20
2016,07,03,02,22,15.20
2016,07,03,02,23,15.10
2016,07,03,02,24,15.10
2016,07,03,02,25,15.10
2016,07,03,02,26,15.10
2016,07,03,02,27,15.10
2016,07,03,02,28,15.10
2016,07,03,02,29,15.10
2016,07,03,02,30,15.10
2016,07,03,02,31,15.00
2016,07,03,02,32,15.00
2016,07,03,02,33,15.00
2016,07,03,02,34,15.00
2016,07,03,02,35,15.00
2016,07,03,02,36,15.00
2016,07,03,02,37,15.00
2016,07,03,02,38,15.00
2016,07,03,02,39,15.00
2016,07,03,02,40,15.00
2016,07,03,02,41,15.00
2016,07,03,02,42,15.00
2016,07,03,02,43,14.90
2016,07,03,02,44,14.90
2016,07,03,02,45,14.90
2016,07,03,02,46,15.00
2016,07,03,02,47,15.00
2016,07,03,02,48,14.90
2016,07,03,02,49,14.90
2016,07,03,02,50,14.90
2016,07,03,02,51,14.90
2016,07,03,02,52,14.90
2016,07,03,02,53,14.90
2016,07,03,02,54,14.80
2016,07,03,02,55,14.80
2016,07,03,02,56,14.80
2016,07,03,02,57,14.80
2016,07,03,02,58,14.80
2016,07,03,02,59,14.80
2016,07,03,03,00,14.80
2016,07,03,03,01,14.80
2016,07,03,03,02,14.70
2016,07,03,03,03,14.70
2016,07,03,03,04,14.70
2016,07,03,03,05,14.70
2016,07,03,03,06,14.70
2016,07,03,03,07,14.70
2016,07,03,03,08,14.70
2016,07,03,03,09,14.70
2016,07,03,03,10,14.70
2016,07,03,03,11,14.70
2016,07,03,03,12,14.60
2016,07,03,03,13,14.60
2016,07,03,03,14,14.60
2016,07,03,03,15,14.60
2016,07,03,03,16,14.60
2016,07,03,03,17,14.50
2016,07,03,03,18,14.50
2016,07,03,03,19,14.50
2016,07,03,03,20,14.50
2016,07,03,03,21,14.50
2016,07,03,03,22,14.60
2016,07,03,03,23,14.60
2016,07,03,03,24,14.60
2016,07,03,03,25,14.60
2016,07,03,03,26,14.60
2016,07,03,03,27,14.70
2016,07,03,03,28,14.70
2016,07,03,03,29,14.70
2016,07,03,03,30,14.70
2016,07,03,03,31,14.70
2016,07,03,03,32,14.70
2016,07,03,03,33,14.70
2016,07,03,03,34,14.70
2016,07,03,03,35,14.70
2016,07,03,03,36,14.70
2016,07,03,03,37,14.70
2016,07,03,03,38,14.70
2016,07,03,03,39,14.80
2016,07,03,03,40,14.80
2016,07,03,03,41,14.70
2016,07,03,03,42,14.70
2016,07,03,03,43,14.70
2016,07,03,03,44,14.70
2016,07,03,03,45,14.70
2016,07,03,03,46,14.70
2016,07,03,03,47,14.70
2016,07,03,03,48,14.70
2016,07,03,03,49,14.70
2016,07,03,03,50,14.70
2016,07,03,03,51,14.70
2016,07,03,03,52,14.70
2016,07,03,03,53,14.70
2016,07,03,03,54,14.60
2016,07,03,03,55,14.60
2016,07,03,03,56,14.60
2016,07,03,03,57,14.60
2016,07,03,03,58,14.60
2016,07,03,03,59,14.60
2016,07,03,04,00,14.50
2016,07,03,04,01,14.50
2016,07,03,04,02,14.50
2016,07,03,04,03,14.50
2016,07,03,04,04,14.50
2016,07,03,04,05,14.50
2016,07,03,04,06,14.50
2016,07,03,04,07,14.50
2016,07,03,04,08,14.50
2016,07,03,04,09,14.50
2016,07,03,04,10,14.50
2016,07,03,04,11,14.50
2016,07,03,04,12,14.50
2016,07,03,04,13,14.50
2016,07,03,04,14,14.50
2016,07,03,04,15,14.40
2016,07,03,04,16,14.40
2016,07,03,04,17,14.50
2016,07,03,04,18,14.50
2016,07,03,04,19,14.50
2016,07,03,04,20,14.50
2016,07,03,04,21,14.50
2016,07,03,04,22,14.50
2016,07,03,04,23,14.50
2016,07,03,04,24,14.50
2016,07,03,04,25,14.40
2016,07,03,04,26,14.40
2016,07,03,04,27,14.40
2016,07,03,04,28,14.40
2016,07,03,04,29,14.30
2016,07,03,04,30,14.30
2016,07,03,04,31,14.30
2016,07,03,04,32,14.20
2016,07,03,04,33,14.20
2016,07,03,04,34,14.20
2016,07,03,04,35,14.20
2016,07,03,04,36,14.10
2016,07,03,04,37,14.10
2016,07,03,04,38,14.10
2016,07,03,04,39,14.10
2016,07,03,04,40,14.00
2016,07,03,04,41,14.00
2016,07,03,04,42,14.00
2016,07,03,04,43,13.90
2016,07,03,04,44,13.90
2016,07,03,04,45,13.90
2016,07,03,04,46,13.90
2016,07,03,04,47,13.80
2016,07,03,04,48,13.80
2016,07,03,04,49,13.80
2016,07,03,04,50,13.80
2016,07,03,04,51,13.80
2016,07,03,04,52,13.80
2016,07,03,04,53,13.80
2016,07,03,04,54,13.90
2016,07,03,04,55,13.90
2016,07,03,04,56,13.90
2016,07,03,04,57,13.80
2016,07,03,04,58,13.80
2016,07,03,04,59,13.80
2016,07,03,05,00,13.80
2016,07,03,05,01,13.80
2016,07,03,05,02,13.90
2016,07,03,05,03,13.90
2016,07,03,05,04,13.90
2016,07,03,05,05,13.90
2016,07,03,05,06,13.90
2016,07,03,05,07,14.00
2016,07,03,05,08,14.00
2016,07,03,05,09,14.10
2016,07,03,05,10,14.10
2016,07,03,05,11,14.10
2016,07,03,05,12,14.10
2016,07,03,05,13,14.10
2016,07,03,05,14,14.10
2016,07,03,05,15,14.10
2016,07,03,05,16,14.10
2016,07,03,05,17,14.10
2016,07,03,05,18,14.00
2016,07,03,05,19,14.00
2016,07,03,05,20,14.00
2016,07,03,05,21,13.90
2016,07,03,05,22,13.90
2016,07,03,05,23,13.90
2016,07,03,05,24,13.90
2016,07,03,05,25,13.90
2016,07,03,05,26,13.90
2016,07,03,05,27,13.80
2016,07,03,05,28,13.80
2016,07,03,05,29,13.80
2016,07,03,05,30,13.80
2016,07,03,05,31,13.80
2016,07,03,05,32,13.80
2016,07,03,05,33,13.80
2016,07,03,05,34,13.70
2016,07,03,05,35,13.70
2016,07,03,05,36,13.70
2016,07,03,05,37,13.70
2016,07,03,05,38,13.70
2016,07,03,05,39,13.70
2016,07,03,05,40,13.70
2016,07,03,05,41,13.70
2016,07,03,05,42,13.70
2016,07,03,05,43,13.70
2016,07,03,05,44,13.70
2016,07,03,05,45,13.70
2016,07,03,05,46,13.60
2016,07,03,05,47,13.60
2016,07,03,05,48,13.60
2016,07,03,05,49,13.60
2016,07,03,05,50,13.60
2016,07,03,05,51,13.60
2016,07,03,05,52,13.60
2016,07,03,05,53,13.60
2016,07,03,05,54,13.60
2016,07,03,05,55,13.70
2016,07,03,05,56,13.70
2016,07,03,05,57,13.70
2016,07,03,05,58,13.70
2016,07,03,05,59,13.70
2016,07,03,06,00,13.70
2016,07,03,06,01,13.70
2016,07,03,06,02,13.70
2016,07,03,06,03,13.70
2016,07,03,06,04,13.70
2016,07,03,06,05,13.70
2016,07,03,06,06,13.70
2016,07,03,06,07,13.70
2016,07,03,06,08,13.70
2016,07,03,06,09,13.70
2016,07,03,06,10,13.80
2016,07,03,06,11,13.80
2016,07,03,06,12,13.80
2016,07,03,06,13,13.80
2016,07,03,06,14,13.80
2016,07,03,06,15,13.80
2016,07,03,06,16,13.80
2016,07,03,06,17,13.90
2016,07,03,06,18,13.90
2016,07,03,06,19,13.90
2016,07,03,06,20,13.90
2016,07,03,06,21,13.90
2016,07,03,06,22,13.90
2016,07,03,06,23,14.00
2016,07,03,06,24,14.00
2016,07,03,06,25,14.00
2016,07,03,06,26,14.10
2016,07,03,06,27,14.10
2016,07,03,06,28,14.10
2016,07,03,06,29,14.10
2016,07,03,06,30,14.20
2016,07,03,06,31,14.20
2016,07,03,06,32,14.20
2016,07,03,06,33,14.20
2016,07,03,06,34,14.30
2016,07,03,06,35,14.30
2016,07,03,06,36,14.30
2016,07,03,06,37,14.40
2016,07,03,06,38,14.40
2016,07,03,06,39,14.50
2016,07,03,06,40,14.50
2016,07,03,06,41,14.60
2016,07,03,06,42,14.60
2016,07,03,06,43,14.70
2016,07,03,06,44,14.80
2016,07,03,06,45,14.80
2016,07,03,06,46,14.90
2016,07,03,06,47,14.90
2016,07,03,06,48,15.00
2016,07,03,06,49,15.10
2016,07,03,06,50,15.10
2016,07,03,06,51,15.20
2016,07,03,06,52,15.20
2016,07,03,06,53,15.30
2016,07,03,06,54,15.30
2016,07,03,06,55,15.30
2016,07,03,06,56,15.30
2016,07,03,06,57,15.40
2016,07,03,06,58,15.40
2016,07,03,06,59,15.40
2016,07,03,07,00,15.40
2016,07,03,07,01,15.50
2016,07,03,07,02,15.50
2016,07,03,07,03,15.50
2016,07,03,07,04,15.60
2016,07,03,07,05,15.60
2016,07,03,07,06,15.60
2016,07,03,07,07,15.60
2016,07,03,07,08,15.60
2016,07,03,07,09,15.70
2016,07,03,07,10,15.70
2016,07,03,07,11,15.70
2016,07,03,07,12,15.70
2016,07,03,07,13,15.70
2016,07,03,07,14,15.80
2016,07,03,07,15,15.80
2016,07,03,07,16,15.80
2016,07,03,07,17,15.80
2016,07,03,07,18,15.80
2016,07,03,07,19,15.90
2016,07,03,07,20,15.90
2016,07,03,07,21,15.90
2016,07,03,07,22,15.90
2016,07,03,07,23,16.00
2016,07,03,07,24,16.00
2016,07,03,07,25,16.00
2016,07,03,07,26,16.10
2016,07,03,07,27,16.10
2016,07,03,07,28,16.10
2016,07,03,07,29,16.10
2016,07,03,07,30,16.10
2016,07,03,07,31,16.20
2016,07,03,07,32,16.20
2016,07,03,07,33,16.20
2016,07,03,07,34,16.20
2016,07,03,07,35,16.20
2016,07,03,07,36,16.20
2016,07,03,07,37,16.20
2016,07,03,07,38,16.20
2016,07,03,07,39,16.20
2016,07,03,07,40,16.20
2016,07,03,07,41,16.20
2016,07,03,07,42,16.20
2016,07,03,07,43,16.30
2016,07,03,07,44,16.30
2016,07,03,07,45,16.30
2016,07,03,07,46,16.30
2016,07,03,07,47,16.30
2016,07,03,07,48,16.30
2016,07,03,07,49,16.30
2016,07,03,07,50,16.30
2016,07,03,07,51,16.30
2016,07,03,07,52,16.40
2016,07,03,07,53,16.40
2016,07,03,07,54,16.40
2016,07,03,07,55,16.40
2016,07,03,07,56,16.40
2016,07,03,07,57,16.50
2016,07,03,07,58,16.50
2016,07,03,07,59,16.50
2016,07,03,08,00,16.60
2016,07,03,08,01,16.60
2016,07,03,08,02,16.60
2016,07,03,08,03,16.60
2016,07,03,08,04,16.60
2016,07,03,08,05,16.60
2016,07,03,08,06,16.70
2016,07,03,08,07,16.70
2016,07,03,08,08,16.70
2016,07,03,08,09,16.70
2016,07,03,08,10,16.70
2016,07,03,08,11,16.70
2016,07,03,08,12,16.70
2016,07,03,08,13,16.80
2016,07,03,08,14,16.80
2016,07,03,08,15,16.80
2016,07,03,08,16,16.90
2016,07,03,08,17,16.90
2016,07,03,08,18,16.90
2016,07,03,08,19,17.00
2016,07,03,08,20,17.00
2016,07,03,08,21,17.10
2016,07,03,08,22,17.20
2016,07,03,08,23,17.20
2016,07,03,08,24,17.20
2016,07,03,08,25,17.20
2016,07,03,08,26,17.20
2016,07,03,08,27,17.20
2016,07,03,08,28,17.10
2016,07,03,08,29,17.10
2016,07,03,08,30,17.10
2016,07,03,08,31,17.10
2016,07,03,08,32,17.10
2016,07,03,08,33,17.20
2016,07,03,08,34,17.20
2016,07,03,08,35,17.20
2016,07,03,08,36,17.20
2016,07,03,08,37,17.20
2016,07,03,08,38,17.20
2016,07,03,08,39,17.20
2016,07,03,08,40,17.20
2016,07,03,08,41,17.20
2016,07,03,08,42,17.20
2016,07,03,08,43,17.20
2016,07,03,08,44,17.20
2016,07,03,08,45,17.30
2016,07,03,08,46,17.30
2016,07,03,08,47,17.40
2016,07,03,08,48,17.50
2016,07,03,08,49,17.50
2016,07,03,08,50,17.60
2016,07,03,08,51,17.70
2016,07,03,08,52,17.70
2016,07,03,08,53,17.70
2016,07,03,08,54,17.70
2016,07,03,08,55,17.70
2016,07,03,08,56,17.70
2016,07,03,08,57,17.70
2016,07,03,08,58,17.70
2016,07,03,08,59,17.70
2016,07,03,09,00,17.70
2016,07,03,09,01,17.70
2016,07,03,09,02,17.70
2016,07,03,09,03,17.70
2016,07,03,09,04,17.70
2016,07,03,09,05,17.70
2016,07,03,09,06,17.70
2016,07,03,09,07,17.80
2016,07,03,09,08,17.80
2016,07,03,09,09,17.80
2016,07,03,09,10,17.90
2016,07,03,09,11,17.90
2016,07,03,09,12,17.90
2016,07,03,09,13,18.00
2016,07,03,09,14,18.00
2016,07,03,09,15,18.00
2016,07,03,09,16,18.10
2016,07,03,09,17,18.10
2016,07,03,09,18,18.20
2016,07,03,09,19,18.30
2016,07,03,09,20,18.40
2016,07,03,09,21,18.50
2016,07,03,09,22,18.50
2016,07,03,09,23,18.40
2016,07,03,09,24,18.20
2016,07,03,09,25,18.10
2016,07,03,09,26,18.00
2016,07,03,09,27,17.90
2016,07,03,09,28,17.80
2016,07,03,09,29,17.80
2016,07,03,09,30,17.70
2016,07,03,09,31,17.60
2016,07,03,09,32,17.60
2016,07,03,09,33,17.50
2016,07,03,09,34,17.40
2016,07,03,09,35,17.30
2016,07,03,09,36,17.20
2016,07,03,09,37,17.20
2016,07,03,09,38,17.20
2016,07,03,09,39,17.20
2016,07,03,09,40,17.20
2016,07,03,09,41,17.20
2016,07,03,09,42,17.30
2016,07,03,09,43,17.30
2016,07,03,09,44,17.30
2016,07,03,09,45,17.40
2016,07,03,09,46,17.50
2016,07,03,09,47,17.60
2016,07,03,09,48,17.70
2016,07,03,09,49,17.70
2016,07,03,09,50,17.80
2016,07,03,09,51,17.70
2016,07,03,09,52,17.70
2016,07,03,09,53,17.70
2016,07,03,09,54,17.70
2016,07,03,09,55,17.70
2016,07,03,09,56,17.60
2016,07,03,09,57,17.60
2016,07,03,09,58,17.60
2016,07,03,09,59,17.60
2016,07,03,10,00,17.70
2016,07,03,10,01,17.60
2016,07,03,10,02,17.60
2016,07,03,10,03,17.50
2016,07,03,10,04,17.40
2016,07,03,10,05,17.30
2016,07,03,10,06,17.20
2016,07,03,10,07,17.10
2016,07,03,10,08,17.10
2016,07,03,10,09,17.00
2016,07,03,10,10,17.00
2016,07,03,10,11,17.10
2016,07,03,10,12,17.10
2016,07,03,10,13,17.20
2016,07,03,10,14,17.30
2016,07,03,10,15,17.40
2016,07,03,10,16,17.40
2016,07,03,10,17,17.50
2016,07,03,10,18,17.40
2016,07,03,10,19,17.40
2016,07,03,10,20,17.40
2016,07,03,10,21,17.40
2016,07,03,10,22,17.40
2016,07,03,10,23,17.40
2016,07,03,10,24,17.40
2016,07,03,10,25,17.40
2016,07,03,10,26,17.40
2016,07,03,10,27,17.40
2016,07,03,10,28,17.40
2016,07,03,10,29,17.40
2016,07,03,10,30,17.40
2016,07,03,10,31,17.40
2016,07,03,10,32,17.50
2016,07,03,10,33,17.50
2016,07,03,10,34,17.60
2016,07,03,10,35,17.70
2016,07,03,10,36,17.70
2016,07,03,10,37,17.80
2016,07,03,10,38,17.80
2016,07,03,10,39,17.80
2016,07,03,10,40,17.80
2016,07,03,10,41,17.80
2016,07,03,10,42,17.80
2016,07,03,10,43,17.80
2016,07,03,10,44,17.90
2016,07,03,10,45,18.00
2016,07,03,10,46,18.20
2016,07,03,10,47,18.30
2016,07,03,10,48,18.30
2016,07,03,10,49,18.20
2016,07,03,10,50,18.10
2016,07,03,10,51,18.10
2016,07,03,10,52,18.20
2016,07,03,10,53,18.30
2016,07,03,10,54,18.30
2016,07,03,10,55,18.30
2016,07,03,10,56,18.40
2016,07,03,10,57,18.40
2016,07,03,10,58,18.40
2016,07,03,10,59,18.40
2016,07,03,11,00,18.40
2016,07,03,11,01,18.40
2016,07,03,11,02,18.40
2016,07,03,11,03,18.40
2016,07,03,11,04,18.50
2016,07,03,11,05,18.40
2016,07,03,11,06,18.40
2016,07,03,11,07,18.40
2016,07,03,11,08,18.50
2016,07,03,11,09,18.50
2016,07,03,11,10,18.60
2016,07,03,11,11,18.60
2016,07,03,11,12,18.60
2016,07,03,11,13,18.70
2016,07,03,11,14,18.70
2016,07,03,11,15,18.60
2016,07,03,11,16,18.50
2016,07,03,11,17,18.50
2016,07,03,11,18,18.50
2016,07,03,11,19,18.50
2016,07,03,11,20,18.60
2016,07,03,11,21,18.70
2016,07,03,11,22,18.80
2016,07,03,11,23,18.90
2016,07,03,11,24,18.90
2016,07,03,11,25,18.90
2016,07,03,11,26,19.00
2016,07,03,11,27,19.00
2016,07,03,11,28,18.90
2016,07,03,11,29,18.80
2016,07,03,11,30,18.80
2016,07,03,11,31,18.80
2016,07,03,11,32,18.80
2016,07,03,11,33,18.70
2016,07,03,11,34,18.60
2016,07,03,11,35,18.50
2016,07,03,11,36,18.50
2016,07,03,11,37,18.40
2016,07,03,11,38,18.40
2016,07,03,11,39,18.40
2016,07,03,11,40,18.40
2016,07,03,11,41,18.50
2016,07,03,11,42,18.60
2016,07,03,11,43,18.50
2016,07,03,11,44,18.40
2016,07,03,11,45,18.30
2016,07,03,11,46,18.20
2016,07,03,11,47,18.20
2016,07,03,11,48,18.20
2016,07,03,11,49,18.20
2016,07,03,11,50,18.20
2016,07,03,11,51,18.30
2016,07,03,11,52,18.30
2016,07,03,11,53,18.30
2016,07,03,11,54,18.30
2016,07,03,11,55,18.30
2016,07,03,11,56,18.40
2016,07,03,11,57,18.30
2016,07,03,11,58,18.30
2016,07,03,11,59,18.30
2016,07,03,12,00,18.30
2016,07,03,12,01,18.30
2016,07,03,12,02,18.30
2016,07,03,12,03,18.40
2016,07,03,12,04,18.50
2016,07,03,12,05,18.50
2016,07,03,12,06,18.50
2016,07,03,12,07,18.50
2016,07,03,12,08,18.60
2016,07,03,12,09,18.60
2016,07,03,12,10,18.60
2016,07,03,12,11,18.50
2016,07,03,12,12,18.60
2016,07,03,12,13,18.60
2016,07,03,12,14,18.70
2016,07,03,12,15,18.80
2016,07,03,12,16,18.90
2016,07,03,12,17,18.90
2016,07,03,12,18,18.80
2016,07,03,12,19,18.70
2016,07,03,12,20,18.60
2016,07,03,12,21,18.60
2016,07,03,12,22,18.60
2016,07,03,12,23,18.60
2016,07,03,12,24,18.70
2016,07,03,12,25,18.80
2016,07,03,12,26,18.80
2016,07,03,12,27,18.90
2016,07,03,12,28,18.90
2016,07,03,12,29,18.90
2016,07,03,12,30,19.00
2016,07,03,12,31,19.00
2016,07,03,12,32,19.10
2016,07,03,12,33,19.10
2016,07,03,12,34,19.10
2016,07,03,12,35,19.00
2016,07,03,12,36,19.00
2016,07,03,12,37,19.10
2016,07,03,12,38,19.10
2016,07,03,12,39,19.00
2016,07,03,12,40,19.00
2016,07,03,12,41,19.10
2016,07,03,12,42,19.10
2016,07,03,12,43,19.20
2016,07,03,12,44,19.20
2016,07,03,12,45,19.20
2016,07,03,12,46,19.10
2016,07,03,12,47,19.00
2016,07,03,12,48,19.00
2016,07,03,12,49,18.90
2016,07,03,12,50,18.90
2016,07,03,12,51,19.00
2016,07,03,12,52,19.10
2016,07,03,12,53,19.20
2016,07,03,12,54,19.20
2016,07,03,12,55,19.20
2016,07,03,12,56,19.20
2016,07,03,12,57,19.20
2016,07,03,12,58,19.20
2016,07,03,12,59,19.30
2016,07,03,13,00,19.40
2016,07,03,13,01,19.40
2016,07,03,13,02,19.40
2016,07,03,13,03,19.50
2016,07,03,13,04,19.50
2016,07,03,13,05,19.50
2016,07,03,13,06,19.40
2016,07,03,13,07,19.40
2016,07,03,13,08,19.40
2016,07,03,13,09,19.30
2016,07,03,13,10,19.30
2016,07,03,13,11,19.30
2016,07,03,13,12,19.20
2016,07,03,13,13,18.90
2016,07,03,13,14,18.80
2016,07,03,13,15,18.80
2016,07,03,13,16,18.80
2016,07,03,13,17,18.80
2016,07,03,13,18,19.00
2016,07,03,13,19,19.10
2016,07,03,13,20,19.10
2016,07,03,13,21,18.90
2016,07,03,13,22,18.80
2016,07,03,13,23,18.80
2016,07,03,13,24,18.70
2016,07,03,13,25,18.60
2016,07,03,13,26,18.60
2016,07,03,13,27,18.60
2016,07,03,13,28,18.60
2016,07,03,13,29,18.70
2016,07,03,13,30,18.70
2016,07,03,13,31,18.70
2016,07,03,13,32,18.80
2016,07,03,13,33,18.80
2016,07,03,13,34,18.90
2016,07,03,13,35,18.90
2016,07,03,13,36,18.90
2016,07,03,13,37,18.90
2016,07,03,13,38,18.70
2016,07,03,13,39,18.60
2016,07,03,13,40,18.60
2016,07,03,13,41,18.70
2016,07,03,13,42,18.80
2016,07,03,13,43,19.00
2016,07,03,13,44,19.10
2016,07,03,13,45,19.20
2016,07,03,13,46,19.20
2016,07,03,13,47,19.30
2016,07,03,13,48,19.30
2016,07,03,13,49,19.30
2016,07,03,13,50,19.20
2016,07,03,13,51,19.10
2016,07,03,13,52,19.00
2016,07,03,13,53,18.90
2016,07,03,13,54,18.80
2016,07,03,13,55,18.80
2016,07,03,13,56,18.60
2016,07,03,13,57,18.50
2016,07,03,13,58,18.50
2016,07,03,13,59,18.50
2016,07,03,14,00,18.60
2016,07,03,14,01,18.60
2016,07,03,14,02,18.70
2016,07,03,14,03,18.70
2016,07,03,14,04,18.70
2016,07,03,14,05,18.70
2016,07,03,14,06,18.70
2016,07,03,14,07,18.70
2016,07,03,14,08,18.70
2016,07,03,14,09,18.60
2016,07,03,14,10,18.60
2016,07,03,14,11,18.60
2016,07,03,14,12,18.60
2016,07,03,14,13,18.70
2016,07,03,14,14,18.70
2016,07,03,14,15,18.80
2016,07,03,14,16,18.90
2016,07,03,14,17,19.00
2016,07,03,14,18,18.90
2016,07,03,14,19,18.80
2016,07,03,14,20,18.70
2016,07,03,14,21,18.70
2016,07,03,14,22,18.60
2016,07,03,14,23,18.70
2016,07,03,14,24,18.60
2016,07,03,14,25,18.70
2016,07,03,14,26,18.70
2016,07,03,14,27,18.80
2016,07,03,14,28,18.70
2016,07,03,14,29,18.70
2016,07,03,14,30,18.80
2016,07,03,14,31,18.80
2016,07,03,14,32,18.80
2016,07,03,14,33,18.80
2016,07,03,14,34,18.80
2016,07,03,14,35,18.80
2016,07,03,14,36,18.80
2016,07,03,14,37,18.90
2016,07,03,14,38,19.00
2016,07,03,14,39,19.00
2016,07,03,14,40,19.00
2016,07,03,14,41,19.10
2016,07,03,14,42,19.00
2016,07,03,14,43,19.00
2016,07,03,14,44,18.90
2016,07,03,14,45,18.80
2016,07,03,14,46,18.80
2016,07,03,14,47,18.70
2016,07,03,14,48,18.60
2016,07,03,14,49,18.60
2016,07,03,14,50,18.50
2016,07,03,14,51,18.40
2016,07,03,14,52,18.20
2016,07,03,14,53,18.10
2016,07,03,14,54,18.10
2016,07,03,14,55,18.10
2016,07,03,14,56,18.20
2016,07,03,14,57,18.30
2016,07,03,14,58,18.40
2016,07,03,14,59,18.40
2016,07,03,15,00,18.50
2016,07,03,15,01,18.50
2016,07,03,15,02,18.50
2016,07,03,15,03,18.50
2016,07,03,15,04,18.40
2016,07,03,15,05,18.30
2016,07,03,15,06,18.30
2016,07,03,15,07,18.30
2016,07,03,15,08,18.30
2016,07,03,15,09,18.30
2016,07,03,15,10,18.20
2016,07,03,15,11,18.20
2016,07,03,15,12,18.10
2016,07,03,15,13,18.10
2016,07,03,15,14,18.10
2016,07,03,15,15,18.30
2016,07,03,15,16,18.40
2016,07,03,15,17,18.50
2016,07,03,15,18,18.60
2016,07,03,15,19,18.60
2016,07,03,15,20,18.60
2016,07,03,15,21,18.60
2016,07,03,15,22,18.60
2016,07,03,15,23,18.60
2016,07,03,15,24,18.50
2016,07,03,15,25,18.40
2016,07,03,15,26,18.40
2016,07,03,15,27,18.40
2016,07,03,15,28,18.30
2016,07,03,15,29,18.30
2016,07,03,15,30,18.30
2016,07,03,15,31,18.30
2016,07,03,15,32,18.30
2016,07,03,15,33,18.30
2016,07,03,15,34,18.20
2016,07,03,15,35,18.20
2016,07,03,15,36,18.20
2016,07,03,15,37,18.20
2016,07,03,15,38,18.20
2016,07,03,15,39,18.30
2016,07,03,15,40,18.40
2016,07,03,15,41,18.40
2016,07,03,15,42,18.50
2016,07,03,15,43,18.50
2016,07,03,15,44,18.60
2016,07,03,15,45,18.60
2016,07,03,15,46,18.70
2016,07,03,15,47,18.80
2016,07,03,15,48,18.90
2016,07,03,15,49,19.00
2016,07,03,15,50,19.10
2016,07,03,15,51,19.10
2016,07,03,15,52,19.10
2016,07,03,15,53,19.10
2016,07,03,15,54,19.00
2016,07,03,15,55,19.00
2016,07,03,15,56,19.00
2016,07,03,15,57,18.90
2016,07,03,15,58,18.90
2016,07,03,15,59,18.80
2016,07,03,16,00,18.80
2016,07,03,16,01,18.70
2016,07,03,16,02,18.70
2016,07,03,16,03,18.70
2016,07,03,16,04,18.70
2016,07,03,16,05,18.70
2016,07,03,16,06,18.70
2016,07,03,16,07,18.70
2016,07,03,16,08,18.70
2016,07,03,16,09,18.70
2016,07,03,16,10,18.80
2016,07,03,16,11,18.80
2016,07,03,16,12,18.80
2016,07,03,16,13,18.80
2016,07,03,16,14,18.80
2016,07,03,16,15,18.90
2016,07,03,16,16,18.90
2016,07,03,16,17,19.00
2016,07,03,16,18,19.00
2016,07,03,16,19,19.10
2016,07,03,16,20,19.10
2016,07,03,16,21,19.10
2016,07,03,16,22,19.20
2016,07,03,16,23,19.30
2016,07,03,16,24,19.30
2016,07,03,16,25,19.40
2016,07,03,16,26,19.50
2016,07,03,16,27,19.60
2016,07,03,16,28,19.60
2016,07,03,16,29,19.70
2016,07,03,16,30,19.80
2016,07,03,16,31,19.80
2016,07,03,16,32,19.90
2016,07,03,16,33,20.00
2016,07,03,16,34,20.00
2016,07,03,16,35,20.00
2016,07,03,16,36,19.90
2016,07,03,16,37,19.90
2016,07,03,16,38,20.00
2016,07,03,16,39,20.00
2016,07,03,16,40,19.90
2016,07,03,16,41,19.90
2016,07,03,16,42,19.80
2016,07,03,16,43,19.80
2016,07,03,16,44,19.80
2016,07,03,16,45,19.70
2016,07,03,16,46,19.60
2016,07,03,16,47,19.60
2016,07,03,16,48,19.60
2016,07,03,16,49,19.50
2016,07,03,16,50,19.50
2016,07,03,16,51,19.50
2016,07,03,16,52,19.40
2016,07,03,16,53,19.40
2016,07,03,16,54,19.50
2016,07,03,16,55,19.50
2016,07,03,16,56,19.60
2016,07,03,16,57,19.70
2016,07,03,16,58,19.70
2016,07,03,16,59,19.80
2016,07,03,17,00,19.80
2016,07,03,17,01,19.80
2016,07,03,17,02,19.90
2016,07,03,17,03,19.90
2016,07,03,17,04,19.90
2016,07,03,17,05,20.00
2016,07,03,17,06,20.00
2016,07,03,17,07,20.00
2016,07,03,17,08,19.90
2016,07,03,17,09,19.90
2016,07,03,17,10,19.90
2016,07,03,17,11,19.90
2016,07,03,17,12,19.90
2016,07,03,17,13,19.90
2016,07,03,17,14,20.00
2016,07,03,17,15,20.10
2016,07,03,17,16,20.20
2016,07,03,17,17,20.20
2016,07,03,17,18,20.30
2016,07,03,17,19,20.30